When you browse on this site, cookies collect data to enhance your experience and personalize the content and advertising you see.
Visit our Privacy Policy to learn more. By continuing to use the site, you agree to this use of cookies and data.
  • Em Portugal
  • Lista de países
  • Para 7 dias
  • Temperatura da água
  • Mapa do tempo
  • Widgets de tempo
  • user-avatar
    Iniciar Sessão

    Previsão horária em Ropotamo

    Hoje, 22 Novembro, Sexta-feira

    Tempo Temperatura Precipitação Vento Pressão Humidade
    00:00 +12°C° 0.1 mm 9 m/s 761 mmHg 84%
    01:00 +12°C° 0.1 mm 9 m/s 761 mmHg 84%
    02:00 +11°C° 0.1 mm 9 m/s 761 mmHg 84%
    03:00 +11°C° 0.1 mm 8 m/s 761 mmHg 84%
    04:00 +11°C° 0.1 mm 8 m/s 761 mmHg 83%
    05:00 +11°C° 0.1 mm 8 m/s 761 mmHg 83%
    06:00 +10°C° 0.1 mm 9 m/s 761 mmHg 83%
    07:00 +10°C° 0.1 mm 9 m/s 761 mmHg 83%
    08:00 +10°C° 0.1 mm 9 m/s 761 mmHg 83%
    09:00 +10°C° 0.1 mm 9 m/s 761 mmHg 82%
    10:00 +10°C° 0.1 mm 9 m/s 761 mmHg 81%
    11:00 +10°C° 0.1 mm 8 m/s 761 mmHg 80%
    12:00 +10°C° 0.1 mm 8 m/s 761 mmHg 80%
    13:00 +10°C° 0.1 mm 8 m/s 761 mmHg 80%
    14:00 +10°C° 0.1 mm 8 m/s 761 mmHg 80%
    15:00 +10°C° 0.1 mm 7 m/s 761 mmHg 81%
    16:00 +9°C° 0.1 mm 7 m/s 761 mmHg 82%
    17:00 +9°C° 0.1 mm 7 m/s 761 mmHg 82%
    18:00 +9°C° 0.1 mm 6 m/s 761 mmHg 81%
    19:00 +9°C° 0.1 mm 6 m/s 761 mmHg 80%
    20:00 +9°C° 0.1 mm 5 m/s 761 mmHg 79%
    21:00 +10°C° 0.1 mm 5 m/s 761 mmHg 80%
    22:00 +10°C° 0.1 mm 5 m/s 762 mmHg 81%
    23:00 +10°C° 0.1 mm 5 m/s 762 mmHg 83%

    Amanhã, 23 Novembro, Sábado

    Tempo Temperatura Precipitação Vento Pressão Humidade
    00:00 +9°C° 0.3 mm 5 m/s 762 mmHg 84%
    01:00 +9°C° 0.3 mm 5 m/s 762 mmHg 84%
    02:00 +9°C° 0.3 mm 5 m/s 762 mmHg 85%
    03:00 +9°C° 0.6 mm 6 m/s 762 mmHg 87%
    04:00 +9°C° 0.6 mm 6 m/s 762 mmHg 89%
    05:00 +9°C° 0.6 mm 7 m/s 761 mmHg 91%
    06:00 +9°C° 0.7 mm 6 m/s 762 mmHg 91%
    07:00 +9°C° 0.7 mm 6 m/s 762 mmHg 91%
    08:00 +9°C° 0.7 mm 6 m/s 762 mmHg 91%
    09:00 +9°C° 0.5 mm 5 m/s 762 mmHg 91%
    10:00 +9°C° 0.5 mm 5 m/s 762 mmHg 90%
    11:00 +9°C° 0.5 mm 5 m/s 762 mmHg 90%
    12:00 +9°C° 0.6 mm 5 m/s 762 mmHg 91%
    13:00 +9°C° 0.6 mm 5 m/s 761 mmHg 91%
    14:00 +10°C° 0.6 mm 5 m/s 761 mmHg 91%
    15:00 +10°C° 0.4 mm 5 m/s 761 mmHg 91%
    16:00 +11°C° 0.4 mm 4 m/s 761 mmHg 91%
    17:00 +11°C° 0.4 mm 4 m/s 761 mmHg 92%
    18:00 +10°C° 0.3 mm 5 m/s 761 mmHg 91%
    19:00 +10°C° 0.3 mm 5 m/s 761 mmHg 91%
    20:00 +10°C° 0.3 mm 6 m/s 761 mmHg 91%
    21:00 +10°C° 0.2 mm 6 m/s 761 mmHg 91%
    22:00 +10°C° 0.2 mm 6 m/s 761 mmHg 91%
    23:00 +10°C° 0.2 mm 6 m/s 761 mmHg 90%

    Depois de amanhã, 24 Novembro, Domingo

    Tempo Temperatura Precipitação Vento Pressão Humidade
    00:00 +10°C° 0.2 mm 5 m/s 761 mmHg 90%
    01:00 +10°C° 0.2 mm 5 m/s 761 mmHg 90%
    02:00 +11°C° 0.2 mm 4 m/s 761 mmHg 90%
    03:00 +11°C° 0.2 mm 4 m/s 761 mmHg 90%
    04:00 +11°C° 0.2 mm 4 m/s 761 mmHg 90%
    05:00 +11°C° 0.2 mm 4 m/s 761 mmHg 90%
    06:00 +11°C° 0 mm 4 m/s 761 mmHg 89%
    07:00 +11°C° 0 mm 4 m/s 761 mmHg 88%
    08:00 +11°C° 0 mm 4 m/s 761 mmHg 87%
    09:00 +12°C° 0 mm 4 m/s 761 mmHg 84%
    10:00 +12°C° 0 mm 4 m/s 761 mmHg 81%
    11:00 +13°C° 0 mm 4 m/s 761 mmHg 79%
    12:00 +13°C° 0 mm 4 m/s 761 mmHg 79%
    13:00 +13°C° 0 mm 4 m/s 760 mmHg 79%
    14:00 +13°C° 0 mm 4 m/s 760 mmHg 79%
    15:00 +13°C° 0 mm 4 m/s 760 mmHg 81%
    16:00 +12°C° 0 mm 4 m/s 760 mmHg 83%
    17:00 +12°C° 0 mm 4 m/s 759 mmHg 86%
    18:00 +12°C° 0.1 mm 4 m/s 759 mmHg 87%
    19:00 +12°C° 0.1 mm 4 m/s 759 mmHg 88%
    20:00 +12°C° 0.1 mm 4 m/s 759 mmHg 89%
    21:00 +12°C° 0.2 mm 4 m/s 759 mmHg 90%
    22:00 +12°C° 0.2 mm 4 m/s 759 mmHg 91%
    23:00 +12°C° 0.2 mm 3 m/s 759 mmHg 93%

    25 Novembro, Segunda-feira

    Tempo Temperatura Precipitação Vento Pressão Humidade
    00:00 +12°C° 0.1 mm 3 m/s 758 mmHg 93%
    01:00 +12°C° 0.1 mm 3 m/s 758 mmHg 93%
    02:00 +12°C° 0.1 mm 3 m/s 758 mmHg 93%
    03:00 +12°C° 0.1 mm 3 m/s 758 mmHg 93%
    04:00 +13°C° 0.1 mm 2 m/s 757 mmHg 93%
    05:00 +13°C° 0.1 mm 2 m/s 757 mmHg 94%
    06:00 +13°C° 0 mm 2 m/s 757 mmHg 94%
    07:00 +13°C° 0 mm 2 m/s 757 mmHg 94%
    08:00 +13°C° 0 mm 2 m/s 757 mmHg 94%
    09:00 +13°C° 0.1 mm 3 m/s 757 mmHg 90%
    10:00 +14°C° 0.1 mm 4 m/s 757 mmHg 86%
    11:00 +15°C° 0.1 mm 4 m/s 757 mmHg 82%
    12:00 +15°C° 0.3 mm 5 m/s 756 mmHg 82%
    13:00 +15°C° 0.3 mm 6 m/s 756 mmHg 83%
    14:00 +15°C° 0.3 mm 6 m/s 755 mmHg 83%
    15:00 +15°C° 0.1 mm 7 m/s 755 mmHg 84%
    16:00 +14°C° 0.1 mm 7 m/s 755 mmHg 86%
    17:00 +14°C° 0.1 mm 7 m/s 755 mmHg 87%
    18:00 +14°C° 0.1 mm 7 m/s 755 mmHg 87%
    19:00 +12°C° 0.1 mm 7 m/s 755 mmHg 87%
    20:00 +12°C° 0.1 mm 7 m/s 755 mmHg 86%
    21:00 +12°C° 0.1 mm 7 m/s 755 mmHg 86%
    22:00 +12°C° 0.1 mm 7 m/s 755 mmHg 86%
    23:00 +12°C° 0.1 mm 7 m/s 755 mmHg 86%

    26 Novembro, Terça-feira

    Tempo Temperatura Precipitação Vento Pressão Humidade
    00:00 +12°C° 0.1 mm 7 m/s 755 mmHg 86%
    01:00 +12°C° 0.1 mm 7 m/s 755 mmHg 86%
    02:00 +13°C° 0.1 mm 6 m/s 754 mmHg 86%
    03:00 +12°C° 0.1 mm 7 m/s 754 mmHg 86%
    04:00 +12°C° 0.1 mm 7 m/s 754 mmHg 86%
    05:00 +11°C° 0.1 mm 7 m/s 754 mmHg 86%
    06:00 +11°C° 0.1 mm 7 m/s 755 mmHg 86%
    07:00 +11°C° 0.1 mm 7 m/s 755 mmHg 86%
    08:00 +11°C° 0.1 mm 7 m/s 755 mmHg 86%
    09:00 +11°C° 0.2 mm 7 m/s 755 mmHg 85%
    10:00 +11°C° 0.2 mm 7 m/s 756 mmHg 84%
    11:00 +11°C° 0.2 mm 7 m/s 756 mmHg 84%
    12:00 +11°C° 0.1 mm 7 m/s 756 mmHg 82%
    13:00 +11°C° 0.1 mm 7 m/s 755 mmHg 81%
    14:00 +11°C° 0.1 mm 7 m/s 755 mmHg 79%
    15:00 +11°C° 0.1 mm 6 m/s 756 mmHg 80%
    16:00 +11°C° 0.1 mm 6 m/s 756 mmHg 81%
    17:00 +11°C° 0.1 mm 6 m/s 756 mmHg 81%
    18:00 +10°C° 0 mm 5 m/s 757 mmHg 82%
    19:00 +10°C° 0 mm 5 m/s 757 mmHg 83%
    20:00 +9°C° 0 mm 5 m/s 757 mmHg 83%
    21:00 +10°C° 0 mm 4 m/s 757 mmHg 84%
    22:00 +8°C° 0 mm 4 m/s 758 mmHg 85%
    23:00 +9°C° 0 mm 3 m/s 758 mmHg 86%

    27 Novembro, Quarta-feira

    Tempo Temperatura Precipitação Vento Pressão Humidade
    00:00 +9°C° 0 mm 2 m/s 758 mmHg 86%
    01:00 +9°C° 0 mm 2 m/s 758 mmHg 87%
    02:00 +9°C° 0 mm 1 m/s 758 mmHg 87%
    03:00 +9°C° 0 mm 1 m/s 758 mmHg 87%
    04:00 +9°C° 0 mm 1 m/s 758 mmHg 87%
    05:00 +9°C° 0 mm 1 m/s 758 mmHg 87%
    06:00 +9°C° 0 mm 1 m/s 758 mmHg 87%
    07:00 +9°C° 0 mm 1 m/s 758 mmHg 87%
    08:00 +9°C° 0 mm 1 m/s 758 mmHg 87%
    09:00 +11°C° 0 mm 1 m/s 758 mmHg 81%
    10:00 +12°C° 0 mm 2 m/s 758 mmHg 74%
    11:00 +14°C° 0 mm 2 m/s 758 mmHg 67%
    12:00 +15°C° 0 mm 2 m/s 758 mmHg 66%
    13:00 +15°C° 0 mm 2 m/s 758 mmHg 64%
    14:00 +16°C° 0 mm 2 m/s 757 mmHg 63%
    15:00 +15°C° 0 mm 2 m/s 757 mmHg 68%
    16:00 +13°C° 0 mm 3 m/s 757 mmHg 73%
    17:00 +12°C° 0 mm 3 m/s 757 mmHg 78%
    18:00 +11°C° 0 mm 3 m/s 758 mmHg 79%
    19:00 +11°C° 0 mm 3 m/s 758 mmHg 80%
    20:00 +10°C° 0 mm 2 m/s 758 mmHg 81%
    21:00 +10°C° 0 mm 2 m/s 758 mmHg 83%
    22:00 +10°C° 0 mm 2 m/s 758 mmHg 85%
    23:00 +10°C° 0 mm 2 m/s 758 mmHg 87%
    Mostrar mais